Location: Newark
(34.6283°N, 36.0776°E)
Time: 13:00:57
(UTC+00:00)

A-11 Canister half - Pass Details

Date: 26 September 2019
Orbit: 1527 x 1682 km, 47.3° (Epoch: 15 October)

Event Time Altitude Azimuth Distance (km) Brightness Sun altitude
Rises 08:33:38 0° 295° (WNW) 4,826 11.3 52.1°
Reaches altitude 10° 08:37:32 10° 282° (WNW) 3,862 11.0 52.3°
Maximum altitude 08:44:45 23° 234° (SW) 2,966 11.0 52.8°
Drops below altitude 10° 08:52:05 10° 186° (S) 3,920 11.9 53.2°
Sets 08:56:08 0° 173° (S) 4,914 12.2 53.4°
